Regional Weather Roundup
Issued by NWS

Home | Current Version | Previous Version | Text Only | Print | Product List | Glossary On
Versions: 1 2 3 4 5 6 7 8 9 10 11 12 13 14 15 16 17 18 19 20 21 22 23 24 25 26 27 28 29 30 31 32 33 34 35 36 37 38 39 40 41 42 43 44 45 46 47 48 49 50
815
ASUS42 KTBW 220818
RWRFL
FLORIDA REGIONAL WEATHER ROUNDUP
NATIONAL WEATHER SERVICE TAMPA BAY RUSKIN FL
400 AM EDT FRI SEP 22 2017

NOTE: "FAIR" INDICATES FEW OR NO CLOUDS BELOW 12,000 FEET WITH NO
SIGNIFICANT WEATHER AND/OR OBSTRUCTIONS TO VISIBILITY.

FLZ001>010-012>015-112-114-115-220900-
PANHANDLE FLORIDA

CITY           SKY/WX    TMP DP  RH WIND       PRES   REMARKS
PENSACOLA      CLEAR     77  73  87 N3        29.95F
PENSACOLA NAS  CLEAR     73  71  93 NW3       29.95S
MILTON NAS     CLEAR     70  69  97 CALM      29.96F FOG
CRESTVIEW      CLEAR     70  68  93 CALM      29.98S
DUKE FIELD     FAIR      70  68  94 CALM      29.96F
VALPARAISO     PTCLDY    73  68  84 NE3       29.95F
MARY ESTHER    CLEAR     73  70  89 N3        29.94F
PANAMA CITY    FAIR      70  68  93 CALM      29.95F
TYNDALL AFB    CLEAR     72  70  92 E5        29.96S
APALACHICOLA   CLEAR     71  71 100 NE7       29.95F

STATION/POSITION SKY/WX   TEMP    WIND        PRES    WAVE   SWELL
                          AIR SEA DIR/SP/G            HT/PER HT/PER
                          (F)     (DEG/KT/KT) (MB)    (FT/S) (FT/S)
30.1N   87.6W              81 84     CALM     1013.9F   1
29.2N   88.2W              82 84   90/  4/  4 1013.9F   1/ 5   2/ 5
28.8N   86.0W              82 83   50/  8/ 10 1013.4F   1/ 5   2/ 5
PANAMA CITY BEAC           74      70/  4/  6 1014.8F
TOWER C                    80      80/  8/  9 1014.4F
28.5N   84.5W              81 82   70/ 10/ 12 1013.2F   1/ 3

$$
FLZ011-016>038-118-127-128-134-139-239-220900-
NORTH FLORIDA

CITY           SKY/WX    TMP DP  RH WIND       PRES   REMARKS
MARIANNA       CLEAR     70  70 100 CALM      29.97S
TALLAHASSEE    CLEAR     70  69  97 E5        29.97F
LIVE OAK       FOG       70  70 100 CALM      29.98F VSB 1/4
CROSS CITY     CLEAR     70  70  98 NE3       30.01S FOG
LAKE CITY      FOG       63  63 100 N5        29.98S VSB 1
GAINESVILLE    CLEAR    N/A N/A N/A CALM      29.99F
WILLISTON      CLEAR     72  72 100 CALM      29.96F
PALATKA        FAIR      68  68 100 CALM      29.96S
MAYPORT NAS    PTCLDY    79  73  82 E6        29.96F
JACKSONVILLE   PTCLDY    70  70 100 CALM      29.96F
JAX NAS        PTCLDY    79  71  76 NE3       29.96F
JAX CECIL      CLEAR     66  66 100 CALM      29.96F FOG
FERNANDINA BEA FAIR      77  68  73 MISG      29.95F
ST AUGUSTINE   PTCLDY    79  72  79 E8        29.96S
PALM COAST     FAIR      73  59  60 CALM      29.94S

STATION/POSITION SKY/WX   TEMP    WIND        PRES    WAVE   SWELL
                          AIR SEA DIR/SP/G            HT/PER HT/PER
                          (F)     (DEG/KT/KT) (MB)    (FT/S) (FT/S)
SHELL POINT      NOT AVBL
KEATON BEACH               71      70/  4/  5 1014.2F
CEDAR KEY                  75      40/  6/  8 1014.5F
FERNANDINA                 79 83   70/  1/  2 1015.4F
30.7N   81.3W                 82                N/A     2/11   2/11
MAYPORT                    80 82   80/  5/  9 1014.9F
31.4N   80.9W              80 80   70/  6/  8 1014.9F   2/11   2/11
ST AUGUSTINE               81 83   50/ 10/ 12 1014.2F

$$
FLZ040-043>046-052-053-057-058-063-144-220900-
INTERIOR CENTRAL FLORIDA

CITY           SKY/WX    TMP DP  RH WIND       PRES   REMARKS
OCALA          CLEAR     69  68  96 N3        29.96F
THE VILLAGES     N/A     72  72 100 CALM      29.85S
LEESBURG       CLEAR     74  72  93 N6        29.94F
SANFORD        CLEAR     72  69  90 N3        29.93S
ORLANDO EXEC   CLEAR     76  72  87 CALM      29.92F
ORLANDO INTL   CLEAR     74  72  93 N5        29.92F
KISSIMMEE      CLEAR     76  71  85 N5        29.93F
WINTER HAVEN   CLEAR     74  69  85 N3        29.94F
LAKELAND       PTCLDY    72  70  94 CALM      29.93F
SEBRING        FAIR      76  72  87 N3        29.91F
OKEECHOBEE     CLEAR     72  72 100 CALM      29.90S

$$
FLZ041-047-054-059-064-141-147-220900-
EAST CENTRAL FLORIDA

CITY           SKY/WX    TMP DP  RH WIND       PRES   REMARKS
DAYTONA BEACH  PTCLDY    76  71  85 E3        29.93F
DELAND         CLEAR     72  70  94 CALM      29.93S
JFK SPACE CTR  PTCLDY    77  77 100 NE3       29.90F
CAPE CANAVERAL PTCLDY    79  74  86 NE3       29.89F
PATRICK AFB    PTCLDY    81  77  89 NE5       29.88F
MELBOURNE      PTCLDY    81  75  82 NE5       29.90F
VERO BEACH     PTCLDY    74  73  97 CALM      29.90F
FT PIERCE      CLEAR     75  75 100 CALM      29.90S
STUART         PTCLDY    81  77  89 E5        29.90F

STATION/POSITION SKY/WX   TEMP    WIND        PRES    WAVE   SWELL
                          AIR SEA DIR/SP/G            HT/PER HT/PER
                          (F)     (DEG/KT/KT) (MB)    (FT/S) (FT/S)
28.5N   80.2W              83 84  100/  8/ 12 1013.7F   4/10   3/10
28.9N   78.5W                      70/ 16/ 19 1013.5F   5/11   3/11
TRIDENT PIER               79 83  120/  5/  7 1014.3F
28.4N   80.5W                 83                N/A     2/11   2/11
27.5N   80.2W                 83                N/A     4/12   2/12

$$
FLZ050-056-061-142-242-148-248-149-249-151-251-155-255-
160-260-220900-
WEST CENTRAL FLORIDA

CITY           SKY/WX    TMP DP  RH WIND       PRES   REMARKS
CRYSTAL RIVER  FAIR     N/A N/A N/A CALM      29.95F
INVERNESS      FAIR      70  70 100 CALM      29.95F
BROOKSVILLE    CLEAR     72  69  90 CALM      29.95F
CLEARWATER AIR FAIR      73  68  83 CALM      29.93S
ST PETE CLEARW CLEAR     79  71  76 E7        29.93F
TAMPA INTL     CLEAR     77  69  76 CALM      29.93F
TAMPA EXEC     PTCLDY    72  68  88 CALM      29.93F FOG
PLANT CITY     PTCLDY    75  72  88 CALM      29.95S
MACDILL AFB    CLEAR     72  72 100 E6        29.92F
PETER O KNIGHT MOCLDY    77  73  88 NE6       29.93S
ST PETERSBURG  CLEAR     80  73  79 E8        29.91F
SARASOTA       CLEAR     74  71  91 NE3       29.90F
VENICE         FAIR      75  72  88 NE8       29.91F

STATION/POSITION SKY/WX   TEMP    WIND        PRES    WAVE   SWELL
                          AIR SEA DIR/SP/G            HT/PER HT/PER
                          (F)     (DEG/KT/KT) (MB)    (FT/S) (FT/S)
27.3N   84.2W                 83                N/A     2/ 3
CLEARWATER BEACH           78 85   50/  5/  6 1013.6F
MIDDLE TAMPA BAY           78     110/  8/ 11 1013.3F
VENICE                     76 84   50/  5/  6 1012.9F

$$
FLZ066-069-070-075>078-162-262-165-265-220900-
SOUTHWEST FLORIDA AND KEYS

CITY           SKY/WX    TMP DP  RH WIND       PRES   REMARKS
PUNTA GORDA    CLEAR     74  72  93 NE5       29.92F
FT MYERS       CLEAR     76  74  93 NE7       29.89F
SOUTHWEST INTL CLEAR     76  71  85 NE5       29.90F
NAPLES         CLEAR     76  74  93 CALM      29.89F
IMMOKALEE      FAIR      73  73 100 NW6       29.91S
MARATHON       CLEAR     83  73  72 E6        29.87F
KEY WEST NAS   PTCLDY    86  78  77 MISG      29.87F HX  98
KEY WEST INTL  CLEAR     83  76  79 E5        29.87F

STATION/POSITION SKY/WX   TEMP    WIND        PRES    WAVE   SWELL
                          AIR SEA DIR/SP/G            HT/PER HT/PER
                          (F)     (DEG/KT/KT) (MB)    (FT/S) (FT/S)
NAPLES                        85   30/  4/  5 1012.1F
DRY TORTUGAS               84      80/  8/  8 1011.8F
SAND KEY                   83                 1012.2F

$$
FLZ067-068-071>074-168-172>174-220900-
SOUTHEAST FLORIDA

CITY           SKY/WX    TMP DP  RH WIND       PRES   REMARKS
W PALM BEACH   PTCLDY    82  75  79 E7        29.88F
FT LAUDER-EXEC PTCLDY    79  75  87 CALM      29.87F
FT LAUDERDALE  PTCLDY    82  77  84 E7        29.87F
POMPANO BEACH  CLEAR     80  76  87 NE3       29.87F
PEMBROKE PINES CLEAR     78  76  93 CALM      29.89F
OPA LOCKA      CLEAR     80  76  87 CALM      29.88F
MIAMI          MOCLDY    80  77  90 CALM      29.88F
WEST KENDALL   PTCLDY    77  74  90 CALM      29.88S
HOMESTEAD      CLEAR     79  77  94 NW5       29.87F

STATION/POSITION SKY/WX   TEMP    WIND        PRES    WAVE   SWELL
                          AIR SEA DIR/SP/G            HT/PER HT/PER
                          (F)     (DEG/KT/KT) (MB)    (FT/S) (FT/S)
PORT EVERGLADES            84      80/  5/  7 1011.7F
VIRGINIA KEY               84 86   40/  5/  7 1011.4F
LAKE WORTH                         80/ 11/ 12   N/A
FOWEY ROCKS                83 85   50/  6/  7 1012.1F
SETTLEMENT POINT           83     100/  8/ 10 1011.9F

$$





USA.gov is the U.S. government's official web portal to all federal, state and local government web resources and services.